Temp
64 63 63 62 61 64 66 67 67 66 66 65 65 65 65 65 65 59 56 65 67 70 69 68 70 68 68 65 65 63 52 49 53 53 56 57 59 59 60 58 59 61 60 63 64
63 63 62 62 63 60 66 66 66 65 65 65 65 65 64 64 58 55 66 70 71 70 66 65 63 66 62 61 61 59 51 54 59 59 57 57 58 58 59 57 57 58 59 62 63
62 62 62 62 62 60 64 66 65 65 65 65 65 65 64 63 54 55 68 70 70 69 68 67 66 64 59 59 58 58 55 58 59 61 60 58 57 58 56 53 58 58 57 61 62
61 62 62 61 62 62 61 65 65 65 65 65 64 64 64 61 43 59 68 69 70 67 67 64 63 59 56 55 58 56 59 59 60 59 60 57 58 56 57 61 61 62 62 62 61
61 61 61 61 61 62 61 65 65 64 64 64 64 63 62 53 52 63 67 68 65 64 64 62 59 58 55 56 57 55 57 60 59 58 59 58 57 58 56 58 59 59 61 61 62
60 60 60 61 61 61 61 64 65 64 65 64 64 64 58 46 62 63 63 62 62 63 63 64 60 61 57 56 56 57 57 57 59 58 58 57 55 55 59 56 56 57 58 61 62
59 59 59 59 60 60 59 63 64 64 64 63 63 62 55 54 62 61 63 61 62 63 61 63 64 61 56 53 55 56 53 56 55 57 56 59 54 56 58 56 54 55 57 59 62
59 58 59 59 60 60 59 62 64 64 64 63 63 59 51 61 60 61 61 60 64 65 64 64 64 57 55 54 55 52 53 46 53 54 55 54 50 57 54 56 53 54 54 57 59
58 58 58 59 60 60 60 62 63 64 64 63 57 54 47 61 57 59 61 58 61 63 64 66 60 52 52 49 46 48 42 45 49 54 52 52 50 56 53 54 53 52 54 56 57
57 58 57 59 59 59 61 61 62 63 61 60 58 50 49 49 54 58 59 63 58 58 56 54 51 46 46 47 39 39 42 44 44 51 49 48 50 55 52 52 54 52 52 54 56
57 57 57 58 59 59 59 57 52 50 54 50 49 47 49 53 58 54 61 60 57 54 45 49 44 42 45 49 50 49 46 45 47 52 48 47 49 57 53 50 50 51 52 53 54
56 56 57 56 59 60 59 53 55 58 46 51 51 48 53 59 50 53 61 53 51 45 47 43 40 48 50 50 49 48 45 44 47 49 49 47 48 54 51 51 52 53 51 53 53
55 55 55 56 58 57 55 55 62 61 45 45 48 49 51 55 50 50 57 53 49 45 45 40 44 49 49 45 45 43 45 44 45 45 47 45 46 49 50 49 50 51 53 52 55
55 55 54 53 54 56 53 61 64 61 38 38 43 47 51 52 45 54 58 53 47 45 45 45 50 46 44 44 47 40 47 47 46 44 36 45 35 45 48 50 48 51 49 54 54
54 54 54 53 54 52 57 60 61 55 28 39 41 51 50 50 46 47 54 53 44 43 44 41 43 44 42 43 49 43 48 45 44 41 37 37 38 43 44 44 49 50 51 53 55
53 53 54 52 55 58 58 57 54 37 26 33 41 39 42 43 44 46 48 52 51 44 45 42 45 48 45 46 50 47 44 41 40 40 30 37 39 36 48 48 50 52 54 56 55
52 53 52 53 51 57 56 52 35 31 35 31 34 40 40 39 40 45 42 40 39 36 35 39 41 44 46 42 45 45 37 29 28 26 26 33 35 46 47 49 54 56 57 57 56
52 52 52 53 55 55 53 42 31 31 33 37 39 41 36 40 38 42 41 38 37 37 37 34 31 40 45 44 39 41 40 31 23 24 27 31 33 40 48 54 51 52 53 51 51
52 49 48 51 54 55 45 33 31 34 35 37 40 36 34 37 38 40 38 40 39 38 34 35 35 40 44 47 48 40 34 42 34 18 24 31 36 46 45 48 48 49 49 51 51
45 46 46 53 56 51 40 33 34 39 40 42 34 36 32 33 32 35 36 39 38 41 41 37 31 38 41 47 43 42 47 35 32 24 20 29 30 38 42 48 51 50 49 53 50
43 37 44 50 55 45 33 33 37 42 47 40 33 31 35 33 32 33 35 36 41 40 42 39 36 31 39 39 37 38 37 35 37 32 25 21 32 40 47 50 50 53 51 50 49
38 32 46 52 42 42 38 37 44 43 41 39 39 36 38 38 31 33 33 40 46 46 38 41 34 27 33 37 43 40 38 39 34 28 31 28 31 45 45 47 48 50 50 49 46
33 33 43 43 32 36 41 40 42 40 39 39 37 39 42 39 33 35 36 44 47 46 43 41 33 23 32 36 36 37 38 41 39 34 31 29 36 45 43 44 47 48 49 47 45
34 31 33 34 40 41 36 36 38 43 41 40 38 43 39 37 35 33 35 39 44 47 47 48 36 33 29 32 37 33 37 40 40 31 32 35 41 43 46 46 47 49 48 47 44
34 31 31 31 34 40 42 40 38 36 39 41 37 42 38 32 31 31 34 36 40 45 43 43 30 33 33 35 37 36 36 36 36 38 33 39 39 45 49 51 54 49 46 43 43
32 31 32 32 36 39 41 38 39 35 38 37 38 41 38 35 38 32 36 35 36 39 41 39 28 33 27 33 36 34 38 39 40 41 39 40 39 46 46 48 48 52 48 48 46
36 35 33 33 36 37 36 39 40 40 39 41 42 39 37 38 43 45 47 45 44 44 42 38 31 26 19 27 30 25 35 36 39 42 42 36 45 46 45 48 52 54 48 50 50
MSLP
1008.24 1008.62 1008.73 1010.00 1010.23 1010.31 1010.40 1010.92 1011.67 1012.30 1012.88 1013.92 1014.62 1014.88 1015.54 1016.48 1016.93 1017.32 1017.22 1016.53 1016.60 1016.42 1016.51 1016.50 1016.38 1016.53 1016.62 1017.40 1017.71 1017.79 1019.30 1019.65 1019.23 1019.38 1018.74 1019.03 1019.35 1019.77 1019.94 1020.46 1020.85 1020.97 1021.17 1021.39 1021.87
1007.60 1007.93 1008.46 1009.55 1009.82 1010.35 1010.13 1010.54 1011.29 1011.95 1012.86 1013.74 1014.43 1014.78 1015.59 1016.39 1017.04 1016.97 1016.23 1016.12 1016.37 1016.49 1016.56 1016.61 1016.82 1017.01 1017.23 1017.54 1017.72 1018.12 1019.07 1019.05 1018.86 1018.78 1018.69 1018.92 1019.10 1019.51 1020.07 1020.56 1020.96 1021.09 1021.33 1021.50 1021.98
1006.74 1007.44 1008.04 1008.32 1008.53 1009.81 1009.76 1010.12 1010.79 1011.47 1012.47 1013.39 1014.03 1014.66 1015.46 1016.13 1017.08 1015.95 1015.45 1015.76 1016.10 1016.29 1016.53 1016.81 1016.97 1017.15 1017.62 1017.85 1017.98 1018.11 1018.29 1018.30 1018.75 1018.78 1018.79 1018.85 1019.20 1019.37 1019.68 1020.56 1020.18 1020.31 1021.08 1021.50 1021.92
1005.87 1006.40 1007.09 1007.90 1008.09 1008.89 1009.69 1009.42 1010.11 1011.07 1012.00 1012.98 1013.58 1014.51 1015.50 1016.02 1016.26 1014.83 1014.86 1015.37 1015.83 1016.35 1016.63 1017.00 1017.19 1017.50 1018.13 1017.99 1018.32 1018.34 1018.20 1018.41 1018.88 1018.95 1018.87 1019.03 1018.97 1019.27 1019.50 1019.14 1019.23 1019.67 1020.44 1021.18 1021.68
1005.22 1005.43 1006.11 1006.90 1007.74 1007.95 1008.54 1008.52 1009.37 1010.46 1011.56 1012.62 1013.30 1014.26 1015.18 1015.77 1015.11 1014.61 1014.60 1015.12 1015.94 1016.36 1016.58 1016.81 1017.23 1017.66 1017.88 1018.05 1018.61 1018.20 1018.32 1018.24 1018.58 1018.85 1018.96 1018.94 1019.06 1018.94 1019.33 1019.19 1019.26 1019.92 1020.74 1021.13 1021.63
1004.78 1005.06 1005.30 1006.00 1006.56 1007.30 1008.04 1007.49 1008.81 1009.82 1010.93 1012.14 1013.01 1013.82 1014.53 1015.09 1014.41 1014.60 1014.83 1015.66 1015.87 1016.21 1016.52 1016.64 1016.96 1017.47 1017.97 1018.17 1018.44 1018.35 1018.47 1018.48 1018.59 1018.94 1019.22 1019.18 1019.04 1019.30 1018.85 1019.39 1019.79 1020.08 1020.63 1020.96 1021.36
1004.51 1004.81 1004.99 1005.18 1005.80 1006.70 1006.89 1006.99 1008.23 1009.24 1010.44 1011.69 1012.54 1013.49 1014.05 1014.27 1014.22 1014.42 1015.12 1015.65 1015.93 1016.04 1016.49 1016.73 1016.87 1017.40 1018.16 1018.41 1018.78 1018.59 1018.90 1018.82 1019.11 1019.08 1019.29 1019.33 1019.00 1018.98 1018.98 1019.61 1020.08 1020.47 1020.98 1020.98 1021.32
1003.86 1004.42 1003.96 1004.77 1005.14 1005.54 1006.22 1006.22 1007.62 1008.69 1009.97 1011.25 1012.58 1013.29 1013.38 1013.86 1014.14 1014.74 1015.14 1015.82 1015.83 1015.94 1016.37 1016.79 1016.87 1017.85 1018.56 1018.84 1018.85 1018.87 1019.27 1019.73 1019.27 1019.32 1019.04 1020.04 1019.08 1018.34 1019.17 1019.85 1020.34 1020.42 1020.98 1021.02 1021.29
1003.60 1003.60 1003.95 1003.67 1004.01 1004.90 1005.65 1005.56 1007.06 1008.27 1009.88 1011.37 1012.82 1013.24 1013.65 1013.94 1014.40 1014.78 1014.90 1015.77 1016.20 1016.46 1016.72 1017.06 1017.40 1018.88 1019.14 1018.98 1019.46 1019.64 1019.82 1020.03 1019.72 1019.16 1019.39 1019.87 1019.48 1018.73 1019.19 1019.78 1020.39 1020.68 1021.01 1020.94 1021.02
1002.79 1002.80 1002.74 1002.56 1003.16 1004.37 1004.28 1005.09 1006.72 1008.32 1010.05 1011.78 1012.23 1013.17 1013.62 1013.18 1014.24 1014.95 1015.18 1015.50 1016.17 1016.66 1017.57 1018.16 1018.69 1019.17 1019.29 1019.00 1018.73 1019.58 1019.88 1019.78 1019.51 1019.31 1019.61 1019.69 1019.65 1019.30 1019.71 1019.85 1019.96 1020.51 1020.76 1020.88 1020.87
1002.51 1001.89 1002.52 1002.87 1002.90 1003.21 1002.84 1004.76 1006.09 1007.40 1008.75 1009.44 1010.16 1011.43 1012.11 1013.37 1013.88 1014.81 1015.03 1015.67 1016.46 1016.97 1017.95 1018.58 1018.98 1018.24 1018.71 1018.87 1018.78 1019.16 1019.91 1019.84 1019.64 1019.55 1019.64 1019.74 1019.35 1019.08 1019.54 1020.05 1020.06 1020.06 1020.20 1020.66 1020.67
1001.89 1001.73 1001.22 1001.39 1001.42 1001.58 1002.18 1002.60 1003.73 1003.92 1007.38 1009.76 1010.56 1011.89 1011.99 1011.74 1013.84 1014.86 1014.93 1015.55 1016.46 1017.23 1018.12 1019.09 1018.74 1018.65 1018.90 1019.10 1019.31 1019.57 1019.83 1020.14 1020.08 1019.95 1019.91 1019.57 1019.39 1018.83 1019.19 1019.12 1019.03 1019.05 1019.78 1020.00 1020.28
1001.38 1000.77 1000.36 1000.72 1001.05 1000.71 1001.28 1002.58 1004.69 1004.99 1007.74 1011.04 1011.40 1011.37 1011.32 1011.66 1012.97 1014.45 1015.00 1015.42 1016.44 1017.34 1017.96 1018.22 1018.50 1018.63 1018.73 1019.17 1019.50 1019.85 1019.96 1020.14 1020.55 1020.43 1020.17 1020.08 1019.41 1018.58 1018.27 1018.65 1018.44 1018.53 1018.64 1019.40 1019.34
1000.96 1000.20 1000.42 1000.64 1001.23 1000.08 1001.32 1002.91 1003.72 1004.42 1007.71 1010.49 1010.82 1011.45 1011.27 1011.28 1013.50 1014.14 1014.87 1015.18 1016.37 1017.08 1018.17 1018.40 1018.15 1018.30 1018.81 1019.30 1019.51 1020.10 1020.56 1020.74 1020.94 1021.11 1021.22 1020.69 1019.35 1017.60 1017.86 1017.90 1017.87 1017.46 1018.06 1018.15 1018.55
1000.25 1000.50 1000.22 1000.26 998.40 999.11 1000.77 1002.83 1003.90 1004.53 1007.29 1010.39 1011.79 1011.90 1011.47 1011.11 1012.35 1014.37 1014.49 1014.74 1015.48 1016.57 1017.87 1018.16 1018.29 1018.55 1018.85 1018.96 1019.93 1020.65 1020.50 1021.21 1021.74 1022.05 1022.07 1021.02 1020.58 1017.21 1017.24 1017.00 1016.95 1016.87 1016.81 1016.90 1017.27
1000.14 999.70 999.93 999.84 997.92 999.24 1001.20 1002.18 1002.95 1004.38 1006.47 1009.48 1010.82 1011.89 1011.80 1011.63 1012.27 1013.73 1014.55 1014.96 1015.95 1016.96 1017.76 1018.46 1018.61 1018.49 1018.47 1019.10 1019.60 1020.66 1021.49 1022.34 1023.18 1023.15 1022.89 1020.53 1020.09 1016.82 1016.21 1015.55 1015.82 1016.09 1015.90 1015.47 1016.02
999.79 999.46 1000.14 999.89 998.98 999.76 1000.91 1001.69 1002.56 1003.84 1007.35 1009.12 1010.37 1011.12 1011.60 1011.54 1012.46 1013.17 1014.40 1015.30 1015.44 1016.70 1017.89 1018.67 1018.81 1018.72 1018.48 1019.18 1020.19 1020.34 1021.94 1023.35 1024.39 1024.80 1022.32 1020.54 1020.11 1015.22 1015.02 1014.73 1014.28 1014.47 1014.64 1014.74 1014.97
999.32 999.19 999.61 999.89 999.77 998.45 999.34 1000.54 1002.31 1003.76 1006.07 1007.71 1009.46 1010.69 1010.89 1011.32 1012.99 1013.62 1014.50 1015.32 1015.31 1015.40 1017.00 1017.72 1019.15 1018.61 1018.16 1018.05 1019.28 1020.30 1020.97 1022.00 1023.22 1024.08 1022.71 1021.46 1018.73 1014.47 1013.54 1013.21 1013.77 1013.96 1014.34 1014.44 1015.02
999.66 999.87 999.24 999.00 999.64 997.99 999.82 1000.66 1001.59 1003.26 1004.41 1005.72 1008.88 1009.57 1010.82 1011.52 1012.24 1013.66 1014.27 1014.38 1014.59 1014.74 1015.44 1016.80 1017.95 1017.91 1017.89 1017.77 1018.49 1020.29 1020.82 1021.22 1022.64 1023.86 1023.01 1020.18 1017.65 1015.10 1013.80 1013.44 1013.72 1013.59 1014.16 1014.17 1014.39
999.89 999.02 998.23 998.16 997.89 998.56 999.60 1000.50 1001.92 1002.38 1003.59 1005.12 1006.08 1007.69 1009.42 1010.72 1011.74 1012.41 1013.48 1013.50 1014.13 1014.40 1014.16 1015.54 1017.44 1018.14 1018.39 1018.18 1018.78 1018.60 1019.85 1021.01 1022.23 1022.93 1022.35 1019.54 1018.05 1015.43 1014.34 1013.70 1013.17 1013.11 1013.35 1013.63 1014.02
998.92 999.02 997.89 997.84 997.08 997.96 999.18 1000.75 1001.87 1002.58 1002.65 1003.97 1005.08 1006.42 1008.30 1009.41 1010.46 1011.48 1012.21 1012.79 1013.46 1014.19 1014.20 1015.21 1015.85 1018.71 1018.44 1017.84 1018.09 1019.58 1019.76 1021.09 1021.54 1021.75 1020.97 1019.89 1016.89 1014.35 1013.36 1012.76 1012.67 1012.71 1013.08 1013.56 1014.30
999.50 999.53 997.08 996.91 996.34 997.36 998.67 1000.44 1000.79 1001.96 1002.42 1003.13 1004.58 1005.68 1007.29 1008.96 1009.93 1011.22 1011.66 1011.38 1011.90 1012.72 1014.21 1014.72 1016.05 1018.10 1018.02 1017.76 1017.72 1018.24 1018.37 1019.07 1019.86 1020.66 1020.16 1019.34 1015.64 1013.53 1012.83 1012.78 1012.67 1013.25 1013.57 1013.92 1014.24
1000.11 999.48 997.93 998.02 996.63 997.05 998.79 1000.03 1000.40 1001.47 1002.30 1002.95 1004.10 1004.98 1006.03 1007.69 1010.01 1010.59 1011.02 1010.80 1011.14 1012.04 1012.82 1014.22 1015.66 1017.65 1018.63 1018.48 1018.16 1017.75 1018.20 1018.65 1019.04 1019.70 1019.41 1019.29 1014.21 1013.01 1012.97 1012.93 1013.15 1013.48 1013.36 1013.75 1014.24
1000.20 1000.20 999.44 998.97 997.06 996.87 998.22 1000.21 1000.87 1001.27 1001.62 1002.16 1003.18 1004.48 1006.69 1008.39 1009.02 1010.30 1010.85 1010.85 1010.99 1011.91 1012.76 1013.13 1014.54 1014.96 1015.54 1015.64 1016.23 1017.34 1017.35 1017.96 1018.73 1019.26 1017.44 1016.76 1012.45 1013.06 1012.94 1013.03 1013.02 1013.19 1013.49 1013.86 1014.30
999.95 1000.62 1000.42 999.19 998.27 997.80 998.46 999.44 999.91 1001.07 1001.28 1001.90 1003.73 1004.12 1004.69 1007.44 1008.87 1009.16 1010.19 1011.27 1012.15 1012.76 1013.23 1013.34 1014.04 1014.84 1015.41 1015.53 1015.71 1015.75 1016.27 1017.07 1017.45 1016.07 1017.25 1012.89 1014.08 1013.08 1013.13 1012.84 1012.21 1012.73 1013.32 1013.77 1014.14
1000.69 1001.15 1000.72 999.51 998.20 997.91 997.89 999.16 999.53 1000.51 1000.79 1001.61 1002.24 1003.55 1004.21 1005.34 1006.19 1009.06 1009.86 1010.80 1011.93 1013.14 1013.30 1013.57 1014.37 1015.12 1016.21 1016.01 1015.98 1015.92 1015.40 1015.11 1015.07 1015.42 1015.22 1013.56 1012.77 1012.22 1012.28 1012.53 1012.74 1012.24 1012.37 1012.81 1013.38
1001.29 1001.38 1000.94 999.68 998.16 997.66 997.57 998.22 998.83 999.49 1001.08 1001.49 1002.54 1003.76 1004.65 1005.02 1005.94 1007.24 1008.17 1009.24 1009.79 1010.76 1012.10 1012.82 1013.93 1015.78 1017.36 1017.08 1016.65 1016.28 1013.89 1014.26 1013.76 1013.78 1013.05 1013.22 1009.31 1011.17 1011.87 1011.94 1011.55 1011.74 1011.83 1011.68 1011.69
Wind_Speed
24 24 20 21 15 23 23 22 22 21 21 18 17 15 14 10 7 3 7 6 5 6 3 3 3 4 4 4 2 5 5 1 4 5 4 4 5 1 2 6 1 2 5 2 16
25 24 23 25 25 21 25 24 23 24 24 22 18 17 15 12 3 5 5 8 7 9 3 5 3 1 3 2 3 4 4 4 1 2 3 4 3 9 4 4 2 2 3 13 17
25 27 26 26 21 22 26 26 23 25 24 22 20 18 17 8 3 8 12 6 9 8 5 4 5 3 2 0 2 3 5 3 3 4 3 2 2 3 9 3 7 9 12 14 17
17 28 25 26 26 24 26 28 24 24 24 22 22 20 17 6 9 3 13 15 10 6 7 5 3 6 4 4 1 5 4 7 3 5 3 2 5 4 6 7 1 7 17 18 16
11 22 25 25 26 27 20 30 26 26 26 25 24 23 9 5 7 3 11 12 8 7 10 7 6 5 8 6 3 4 5 4 1 5 4 2 5 5 7 2 4 12 17 18 16
13 14 20 26 26 26 23 30 28 28 28 27 27 24 9 13 3 5 10 7 6 5 6 6 8 4 6 5 6 4 1 2 4 5 4 4 2 2 4 4 7 13 16 18 19
13 15 15 19 23 26 22 32 29 29 29 28 28 15 11 10 6 8 9 5 4 4 6 2 5 4 3 6 2 3 4 6 1 1 4 5 3 8 3 5 8 8 8 12 16
14 11 16 19 24 24 21 32 30 30 30 29 29 7 5 6 7 9 8 4 5 4 5 7 8 8 2 1 3 5 5 3 2 1 2 4 7 4 6 8 9 10 9 11 14
13 15 11 21 24 22 29 32 29 30 30 29 16 6 6 9 7 5 6 10 5 6 6 5 6 4 2 6 4 4 4 4 5 5 1 5 7 2 5 8 8 7 8 10 9
12 11 13 18 23 24 34 30 28 28 24 15 5 4 1 10 8 8 3 13 6 14 6 5 4 3 2 7 9 6 7 5 5 4 3 3 8 6 4 6 8 7 8 9 10
11 14 11 22 22 24 28 17 17 16 24 8 12 5 14 8 6 4 11 10 4 4 6 4 4 12 11 13 1 11 6 10 2 1 2 6 8 12 5 5 7 8 9 9 10
12 12 15 19 26 33 22 17 27 20 30 6 13 5 4 14 12 11 16 10 9 11 7 4 6 5 10 7 6 10 11 7 3 0 3 4 9 12 6 7 9 11 8 12 7
13 10 11 22 23 19 21 24 18 17 9 6 6 8 13 10 13 16 19 8 15 10 11 6 3 12 10 10 10 3 15 7 4 0 0 5 13 10 6 5 5 7 7 8 15
11 7 11 26 22 21 20 24 20 9 7 5 6 3 5 11 7 5 8 7 5 13 11 2 5 12 12 7 11 8 4 4 5 1 4 6 7 9 6 12 9 10 10 13 14
9 9 9 21 14 18 24 20 19 3 15 14 8 4 7 8 19 9 2 3 14 9 8 4 8 14 11 7 9 2 10 5 2 4 3 4 4 8 6 10 11 12 14 14 16
9 7 6 12 3 17 20 20 7 7 7 9 8 11 8 2 4 7 5 6 4 7 5 2 2 7 9 7 15 11 9 11 6 5 7 7 7 7 12 8 6 9 14 16 15
9 9 4 2 9 18 18 18 12 10 11 11 12 19 16 8 7 15 11 9 7 10 8 4 1 2 2 9 4 13 11 3 3 3 10 5 8 15 6 8 10 12 16 16 12
9 9 4 7 9 23 13 13 11 8 8 7 20 22 11 16 4 9 13 11 5 6 8 9 7 8 6 7 9 12 5 6 6 5 5 4 12 8 11 10 6 6 7 4 8
8 3 3 7 14 18 19 13 7 13 10 17 22 20 8 6 10 10 13 16 10 9 9 8 6 2 2 4 8 7 8 7 5 1 1 6 9 9 8 7 6 9 6 10 9
3 2 3 6 17 15 12 7 5 7 16 28 16 8 18 16 10 14 19 7 7 5 1 7 6 5 4 3 5 5 8 5 2 4 5 5 6 8 3 12 10 9 12 14 6
1 2 4 8 13 14 8 5 7 7 29 14 8 10 11 16 7 13 18 1 7 8 4 6 5 2 8 10 13 4 6 3 2 4 4 2 8 9 13 10 8 9 3 4 5
2 2 4 12 9 10 12 11 8 19 2 7 7 7 20 20 7 9 16 8 15 17 10 6 6 5 10 3 11 4 7 10 6 5 2 2 11 6 8 7 4 7 7 5 3
1 2 5 9 7 16 11 9 6 14 7 6 7 5 11 16 7 4 7 5 16 21 19 9 3 5 3 2 3 13 7 14 3 4 7 5 15 2 3 4 6 7 7 6 4
1 2 2 2 2 21 20 13 10 4 5 7 10 15 11 13 5 10 7 3 12 12 9 8 6 8 11 7 9 9 16 14 15 5 8 16 31 6 8 9 3 6 6 5 6
2 0 0 2 7 16 17 15 24 9 3 8 4 16 13 8 3 5 5 5 5 9 4 5 6 4 2 4 6 9 17 17 23 29 14 32 24 22 18 19 19 8 5 4 7
3 1 1 4 6 19 13 17 30 7 8 7 15 19 7 11 10 10 11 6 9 5 9 2 2 4 2 1 7 7 17 25 27 21 22 17 23 6 6 8 8 14 4 8 12
2 1 2 4 10 17 11 23 20 15 7 8 18 11 6 10 12 13 9 10 16 19 19 10 8 5 6 1 5 5 20 18 19 21 25 18 33 6 8 13 16 17 8 11 11
Wind_Direction
228 221 218 234 254 243 204 198 193 185 180 178 178 159 145 139 126 135 213 209 194 181 179 131 3 36 57 109 182 124 68 166 188 168 234 156 155 139 109 114 140 127 150 214 137
223 214 218 227 225 271 208 196 194 183 181 179 175 156 138 136 108 233 232 189 197 161 140 150 120 49 72 61 43 104 129 199 212 266 254 196 181 158 133 126 219 133 55 134 146
226 211 211 221 227 224 222 196 193 185 183 176 166 153 137 133 48 241 199 213 176 172 165 151 126 84 69 154 71 199 154 95 314 285 253 200 202 187 127 218 211 189 158 154 156
241 216 207 215 213 214 248 196 187 182 178 169 158 147 150 141 192 194 195 175 167 173 124 147 149 125 160 165 275 128 149 126 254 348 332 230 128 190 207 201 270 173 159 162 163
243 218 208 213 217 221 249 195 186 177 174 167 157 150 143 187 238 283 169 155 137 152 164 160 152 147 175 158 150 145 192 143 10 320 256 108 229 201 226 294 102 133 160 174 175
233 227 221 215 212 215 231 192 187 176 174 168 157 151 146 198 202 130 116 112 141 142 164 162 171 175 140 162 175 157 140 331 10 330 298 223 226 209 210 137 125 152 171 177 182
246 232 220 218 212 208 223 192 186 173 170 162 156 162 169 175 153 136 124 134 144 139 129 141 162 107 124 111 261 117 83 1 337 297 275 263 171 230 135 146 150 164 176 176 189
255 236 234 222 213 209 226 186 182 172 171 161 159 177 167 138 127 128 119 88 44 70 101 107 94 92 52 168 41 91 74 74 306 157 240 64 272 231 167 160 183 173 181 180 196
258 247 284 222 211 208 221 173 174 168 165 154 160 209 155 143 135 146 138 136 104 93 87 82 59 90 43 119 84 42 124 205 291 176 194 158 282 303 179 183 197 187 192 194 192
264 261 333 244 207 213 186 163 169 163 155 152 122 131 255 187 132 131 119 138 108 108 72 64 71 107 130 175 184 155 178 224 193 171 176 224 256 280 238 211 203 189 199 207 202
286 281 266 234 202 201 153 156 166 172 176 174 161 119 126 142 103 125 146 124 108 96 141 144 175 198 180 189 292 149 171 228 170 356 151 230 253 258 194 220 220 204 199 211 212
293 282 266 296 199 184 166 173 176 165 164 154 136 88 149 137 127 139 153 149 158 155 117 117 228 158 140 167 124 190 183 205 262 60 175 307 266 257 204 227 209 203 204 214 198
296 285 281 292 191 183 169 172 162 135 115 129 121 154 164 136 134 154 169 134 171 167 181 165 163 147 152 171 192 151 203 184 192 190 184 27 276 262 250 252 218 218 197 202 212
297 300 300 308 195 167 175 170 158 161 119 160 135 188 163 123 91 124 158 134 169 179 170 247 130 152 150 185 189 198 191 131 114 305 229 169 277 249 228 238 221 216 196 212 215
310 276 279 292 149 166 159 165 157 91 177 147 147 107 255 166 136 175 183 74 150 139 142 173 165 162 172 164 159 244 160 152 68 179 313 215 226 267 162 239 240 226 214 217 217
314 313 319 292 100 153 153 156 127 148 156 141 130 170 146 109 84 114 140 65 105 111 64 99 333 175 171 160 165 131 70 38 356 58 268 181 210 219 226 215 218 238 230 218 215
328 323 201 287 181 161 159 154 166 189 147 144 159 167 148 141 105 156 157 156 156 142 160 111 143 325 164 98 160 126 136 123 145 198 236 272 183 239 239 225 214 214 221 227 213
323 302 195 226 269 143 159 152 183 123 154 141 154 150 137 138 88 150 152 177 242 113 146 163 182 188 170 158 165 164 152 143 174 207 264 351 230 260 211 228 225 249 265 261 221
312 210 215 215 235 152 157 195 140 154 144 136 141 144 127 139 134 147 186 197 182 186 137 153 198 15 148 119 147 163 212 148 124 77 19 215 292 297 255 264 237 238 245 246 233
238 198 219 266 174 155 158 126 121 139 129 147 138 149 164 162 135 165 174 189 176 177 132 189 115 184 205 130 20 146 141 190 79 198 251 280 275 246 337 243 224 225 223 246 246
348 72 249 241 166 167 172 116 125 165 143 148 135 126 168 154 136 166 172 226 142 169 79 146 100 20 128 211 166 134 155 92 44 204 184 281 258 221 224 219 235 252 272 281 279
78 231 340 180 169 172 170 140 140 155 82 106 91 92 161 164 123 149 187 179 163 154 147 195 117 141 196 300 176 194 181 171 182 197 251 134 260 246 229 236 250 263 307 294 261
116 319 323 323 166 166 132 121 136 154 154 141 123 145 145 157 128 144 162 199 158 166 171 177 143 96 84 349 3 202 188 203 151 73 214 185 262 236 255 297 293 286 311 304 271
132 307 305 355 107 165 145 151 141 188 96 81 106 114 120 160 31 170 147 114 163 174 170 142 171 165 181 183 140 189 185 190 199 202 205 222 243 249 294 305 263 245 255 275 259
54 59 84 223 184 167 160 156 153 158 135 135 76 162 145 134 104 110 113 86 84 151 177 188 177 132 89 138 142 170 178 177 199 220 199 241 248 239 260 288 292 197 201 227 252
108 169 239 267 193 155 156 181 168 138 146 169 145 159 131 144 164 156 128 129 168 175 174 210 201 110 163 302 187 179 193 192 207 215 236 255 271 170 220 248 278 290 254 235 213
140 170 103 293 188 160 178 169 172 134 13 113 136 125 107 158 148 158 167 155 157 168 187 173 139 113 233 171 114 309 209 197 208 206 219 227 242 136 219 226 244 255 238 247 250